Home > Weather > East London > Past weeks

Flag for South Africa Past Weather in East London, South Africa — Yesterday and Last 2 Weeks

Now
48 °F

Sunny.


Feels Like: 45 °F
Forecast: 52 / 58 °F
Wind: 7 mph from West

Location: East London

Current Time: Jul 24, 2016 at 8:55:26 AM

Latest Report: Jul 24, 2016 at 8:00 AM


Visibility: 10 mi

Pressure: 30.39 "Hg

Humidity: 71%

Dew Point: 39 °F

Location of East LondonLocation

Past Weather in East London — Graph

°F

East London Temperature Yesterday

Maximum temperature yesterday: 63 °F (at 1:54 PM)
Minimum temperature yesterday: 50 °F (at 7:00 AM)
Average temperature yesterday: 56 °F

High & Low Weather Summary for the Past Weeks

 TemperatureHumidityPressure
High84 °F (Jul 14, 1:00 PM)94% (Jul 9, 7:00 PM)30.57 "Hg (Jul 9, 7:00 PM)
Low46 °F (Jul 24, 5:00 AM)16% (Jul 14, 1:00 PM)29.83 "Hg (Jul 20, 4:00 PM)
Average63 °F62%30.21 "Hg
* Reported Jul 9 8:00 AM — Jul 24 7:00 AM, East London, Weather by CustomWeather, © 2016

Note: Actual official high and low records may vary slightly from our data, if they occured in-between our weather recording intervals... More about our weather records

Advertising

East London Weather History for the Previous 24 Hours

Scroll right to see more
 ConditionsComfort  
Time TempWeatherWind HumidityBarometerVisibility
7:00 AM
Sun, Jul 24
46 °FSunny.8 mph71%30.36 "Hg10 mi
6:00 AM48 °FClear.9 mph71%30.36 "Hg10 mi
5:00 AM46 °FPassing clouds.7 mph76%30.33 "HgN/A
7:00 PM
Sat, Jul 23
52 °FClear.8 mph62%30.24 "Hg10 mi
6:00 PM54 °FClear.13 mph54%30.21 "Hg10 mi
5:00 PM57 °FPassing clouds.16 mph51%30.21 "HgN/A
4:00 PM57 °FScattered clouds.16 mph51%30.18 "HgN/A
3:00 PM61 °FPassing clouds.22 mph42%30.18 "HgN/A
2:00 PM63 °FPassing clouds.21 mph39%30.15 "HgN/A
1:54 PM63 °FPassing clouds.20 mph39%30.15 "HgN/A
1:00 PM59 °FScattered clouds.23 mph45%30.18 "HgN/A
12:02 PM61 °FPassing clouds.24 mph45%30.18 "HgN/A
11:00 AM59 °FScattered clouds.28 mph42%30.18 "HgN/A
10:00 AM57 °FSunny.15 mph48%30.18 "Hg10 mi
9:00 AM55 °FSunny.18 mph55%30.15 "Hg10 mi
8:00 AM52 °FSunny.13 mph62%30.15 "Hg10 mi
Weather by CustomWeather, © 2016

See weather overviewHow to use our weather pages